Weather History for Mount Holly, NJ

Change the Weather History Date:

Saturday, October 12, 2013

  Actual Average (KWRI) Record (KWRI)
Temperature  
Mean Temperature 66 °F -  
Max Temperature 70 °F 66 °F 82 °F (2001)
Min Temperature 61 °F 45 °F 33 °F (1996)
Growing Degree Days 16 (Base 50)    
Moisture  
Dew Point 54 °F    
Average Humidity 70    
Maximum Humidity 81    
Minimum Humidity 57    
Precipitation  
Precipitation 0.00 in - - ()
Sea Level Pressure  
Sea Level Pressure 30.12 in    
Wind  
Wind Speed 7 mph (NE)    
Max Wind Speed 13 mph    
Max Gust Speed 25 mph    
Visibility 10 miles    
Events      
Averages and records for this station are not official NWS values.
T = Trace of Precipitation, MM = Missing Value Source: NWS Daily Summary

Daily Weather History Graph

Daily Weather History Graph

Search for Another Location

Airport:

Trip Planner

Search our weather history database for the weather conditions in past years. The results will help you decide how hot, cold, wet, or windy it might be!

Date:

Astronomy

Oct. 12, 2013 Rise Set
Actual Time 7:06 AM EDT 6:24 PM EDT
Civil Twilight 6:39 AM EDT 6:51 PM EDT
Nautical Twilight 6:08 AM EDT 7:22 PM EDT
Astronomical Twilight 5:36 AM EDT 7:53 PM EDT
Moon 2:31 PM EDT (10/12) 12:07 AM EDT (10/12)
Length of Visible Light 12h 11m
Length of Day
11h 17m
First Quarter, 58% of the Moon is Illuminated
Oct 12
First Quarter
Oct 18
Full
Oct 26
Last Quarter
Nov 3
New
Nov 10
First Quarter

Hourly Weather History & Observations

Time (EDT) Temp. Dew Point Humidity Pressure Visibility Wind Dir Wind Speed Gust Speed Precip Events Conditions
12:54 AM 63.0 °F 57.0 °F 81% 30.03 in 10.0 mi NE 6.9 mph - N/A   Overcast
1:26 AM 62.6 °F 55.4 °F 77% 30.03 in 10.0 mi NE 6.9 mph - N/A   Mostly Cloudy
1:49 AM 62.6 °F 55.4 °F 77% 30.03 in 10.0 mi NNE 5.8 mph - N/A   Mostly Cloudy
1:54 AM 63.0 °F 55.9 °F 78% 30.04 in 10.0 mi NE 4.6 mph - N/A   Mostly Cloudy
2:24 AM 62.6 °F 55.4 °F 77% 30.03 in 10.0 mi NE 6.9 mph - N/A   Overcast
2:54 AM 63.0 °F 55.9 °F 78% 30.03 in 10.0 mi NE 6.9 mph - N/A   Overcast
3:54 AM 62.1 °F 54.0 °F 75% 30.05 in 10.0 mi NE 4.6 mph - N/A   Overcast
4:54 AM 62.1 °F 53.1 °F 72% 30.06 in 10.0 mi NE 6.9 mph - N/A   Overcast
5:54 AM 61.0 °F 51.1 °F 70% 30.07 in 10.0 mi NNE 8.1 mph - N/A   Overcast
6:54 AM 61.0 °F 48.9 °F 64% 30.08 in 10.0 mi NE 5.8 mph - N/A   Overcast
7:54 AM 61.0 °F 48.9 °F 64% 30.09 in 9.0 mi NE 5.8 mph - N/A   Overcast
8:54 AM 61.0 °F 48.0 °F 62% 30.11 in 10.0 mi NNE 6.9 mph - N/A   Overcast
9:54 AM 62.1 °F 48.0 °F 60% 30.13 in 10.0 mi Variable 5.8 mph 17.3 mph N/A   Overcast
10:54 AM 66.9 °F 51.1 °F 57% 30.13 in 10.0 mi ENE 9.2 mph - N/A   Scattered Clouds
11:54 AM 68.0 °F 53.1 °F 59% 30.14 in 10.0 mi NE 8.1 mph 16.1 mph N/A   Overcast
12:54 PM 69.1 °F 54.0 °F 58% 30.12 in 10.0 mi ENE 12.7 mph 19.6 mph N/A   Overcast
1:54 PM 68.0 °F 55.0 °F 63% 30.13 in 10.0 mi East 9.2 mph 17.3 mph N/A   Overcast
2:54 PM 70.0 °F 55.0 °F 59% 30.12 in 10.0 mi ENE 10.4 mph 21.9 mph N/A   Partly Cloudy
3:54 PM 68.0 °F 55.9 °F 65% 30.14 in 10.0 mi ENE 11.5 mph 25.3 mph N/A   Overcast
4:54 PM 66.9 °F 54.0 °F 63% 30.14 in 10.0 mi ENE 11.5 mph 20.7 mph N/A   Overcast
5:54 PM 64.9 °F 53.1 °F 65% 30.16 in 10.0 mi ENE 9.2 mph 18.4 mph N/A   Overcast
6:36 PM 64.4 °F 55.4 °F 73% 30.17 in 10.0 mi ENE 5.8 mph 16.1 mph N/A   Overcast
6:54 PM 63.0 °F 55.9 °F 78% 30.18 in 10.0 mi ENE 11.5 mph 19.6 mph N/A   Overcast
7:54 PM 62.1 °F 55.0 °F 78% 30.19 in 10.0 mi ENE 11.5 mph 24.2 mph N/A   Overcast
8:54 PM 62.1 °F 55.9 °F 80% 30.21 in 10.0 mi Variable 6.9 mph 21.9 mph 0.00 in   Overcast
9:54 PM 62.1 °F 55.0 °F 78% 30.21 in 10.0 mi ENE 6.9 mph 20.7 mph N/A   Overcast
10:54 PM 62.1 °F 55.0 °F 78% 30.22 in 10.0 mi ENE 10.4 mph 20.7 mph N/A   Overcast
11:54 PM 62.1 °F 55.0 °F 78% 30.22 in 10.0 mi ENE 8.1 mph 19.6 mph N/A   Overcast